{"data":{"norad_id":65465,"epoch":"2026-05-25T04:00:03.998880Z","epoch_age_seconds":61419,"freshness":"FRESH","line1":"1 65465U 25195H   26145.16671295  .00056783  00000+0  17263-2 0  9992","line2":"2 65465  53.1598 263.0418 0001225  89.7643 190.9225 15.33520818  5751","mean_motion":15.33520818,"eccentricity":0.0001225,"inclination_deg":53.1598,"raan_deg":263.0418,"arg_perigee_deg":89.7643,"mean_anomaly_deg":190.9225,"bstar":0.0017263,"rev_number":575,"period_min":93.901561889328,"perigee_km":464.47927955787,"apogee_km":466.15592593555,"semimajor_km":6843.4546027467,"source":"CELESTRAK","updated_at":"2026-05-25T13:38:20.813068Z"}}